Location: Unspecified
(44.4377°N, 88.0525°W)
Time: 15:51:58
(UTC-05:00)

CZ-3 Stage 3 - Visible Passes

Search period start: 25 June 2017 00:00
Search period end: 05 July 2017 00:00
Orbit: 417 x 34780 km, 30.9° (Epoch: 24 June)

Date Brightness Start Highest point End Pass type
(mag) Time Alt. Az. Time Alt. Az. Time Alt. Az.
25 Jun 10.0 22:27:24 10° WNW 23:33:27 23° W 01:52:35 10° W visible
26 Jun 9.3 18:28:02 10° W 19:36:31 61° SW 02:15:16 10° SW visible
27 Jun 7.3 14:48:36 10° WSW 19:16:13 43° SE 23:33:41 14° S visible
28 Jun 10.0 22:18:18 10° WNW 23:22:53 22° W 01:37:51 10° W visible
29 Jun 9.2 18:18:44 10° W 19:25:43 60° SW 02:01:16 10° SW visible
30 Jun 7.2 14:39:20 10° WSW 19:02:33 42° SE 23:27:28 12° S visible
01 Jul 10.1 22:09:15 10° WNW 23:12:20 22° W 01:23:02 10° W visible
02 Jul 9.2 18:09:27 10° W 19:15:00 60° SW 01:47:12 10° SW visible
03 Jul 7.2 14:30:03 10° WSW 18:48:42 42° SE 23:21:21 10° S visible
